STARLINK-1101

decayed
NORAD ID: 44919 Int'l Des: 2020-001 Owner: SPXS Country: US Constellation: starlink
LEOCIRCULAR

关于 STARLINK-1101

正在加载描述...

高度历史

Altitude vs Time

uPlot chart will show altitude changes over time

两行轨道根数

1 44919U 20001F 21327.03153696 .14207599 12185-4 28111-2 0 9991
2 44919 53.0320 131.9614 0007898 306.2906 53.7848 16.30705880104294
Epoch: Nov 23, 2021 • Age: 33425 hours

当前状态

Position data unavailable
发射日期 Jan 7, 2020
运行时间 5.6 years
衰减日期 Nov 23, 2021
类型 internet

技术详情

分类 Payload
质量 260.00 kg
干质量 248.00 kg
总质量 260.00 kg
长度 0.20 m
直径 2.80 m
跨度 9.00 m
形状 Box + pan
制造商 SPXS
平台类型 Starlink
阶段状态 Unknown Transfer Status
所有者/国家 SPXS/US

大型星座

Loading constellations...